Time,TemperatureF,DewpointF,PressureIn,WindDirection,WindDirectionDegrees,WindSpeedMPH,WindSpeedGustMPH,Humidity,HourlyPrecipIn,Conditions,Clouds,dailyrainin,SolarRadiationWatts/m^2,SoftwareType,DateUTC
2013-02-07 00:06:00,23.1,16.4,30.11,ENE,57,9.0,9.0,75,0.00,,,0.00,0,Wunderground v.1.15,2013-02-07 07:06:00,
2013-02-07 00:14:00,23.6,16.5,30.11,ENE,76,10.0,10.0,74,0.00,,,0.00,0,Wunderground v.1.15,2013-02-07 07:14:00,
2013-02-07 00:20:00,24.0,16.6,30.11,ENE,63,11.0,11.0,73,0.00,,,0.00,0,Wunderground v.1.15,2013-02-07 07:20:00,
2013-02-07 00:26:00,24.4,16.7,30.11,ENE,65,10.0,11.0,72,0.00,,,0.00,0,Wunderground v.1.15,2013-02-07 07:26:00,
2013-02-07 00:32:00,24.8,18.3,30.11,East,80,8.0,9.0,76,0.00,,,0.00,0,Wunderground v.1.15,2013-02-07 07:32:00,
2013-02-07 00:38:00,24.8,16.4,30.11,ENE,74,8.0,9.0,70,0.00,,,0.00,0,Wunderground v.1.15,2013-02-07 07:38:00,
2013-02-07 00:44:00,24.6,16.2,30.11,ENE,74,8.0,8.0,70,0.00,,,0.00,0,Wunderground v.1.15,2013-02-07 07:44:00,
2013-02-07 00:50:00,24.8,16.4,30.10,ENE,70,9.0,9.0,70,0.00,,,0.00,0,Wunderground v.1.15,2013-02-07 07:50:00,
2013-02-07 00:56:00,24.9,16.2,30.10,ENE,77,9.0,9.0,69,0.00,,,0.00,0,Wunderground v.1.15,2013-02-07 07:56:00,
2013-02-07 01:02:00,24.8,16.1,30.10,East,89,8.0,11.0,69,0.00,,,0.00,0,Wunderground v.1.15,2013-02-07 08:02:00,
2013-02-07 01:08:00,24.7,16.0,30.10,ENE,77,8.0,11.0,69,0.00,,,0.00,0,Wunderground v.1.15,2013-02-07 08:08:00,
2013-02-07 01:14:00,24.8,16.1,30.10,ENE,74,8.0,13.0,69,0.00,,,0.00,0,Wunderground v.1.15,2013-02-07 08:14:00,
2013-02-07 01:20:00,25.1,16.0,30.10,ENE,64,11.0,11.0,68,0.00,,,0.00,0,Wunderground v.1.15,2013-02-07 08:20:00,
2013-02-07 01:26:00,25.6,16.2,30.10,ENE,60,10.0,13.0,67,0.00,,,0.00,0,Wunderground v.1.15,2013-02-07 08:26:00,
2013-02-07 01:32:00,26.0,15.8,30.10,ENE,76,10.0,14.0,65,0.00,,,0.00,0,Wunderground v.1.15,2013-02-07 08:32:00,
2013-02-07 01:38:00,26.0,15.8,30.09,East,81,9.0,14.0,65,0.00,,,0.00,0,Wunderground v.1.15,2013-02-07 08:38:00,
2013-02-07 01:44:00,25.6,15.5,30.09,East,80,8.0,11.0,65,0.00,,,0.00,0,Wunderground v.1.15,2013-02-07 08:44:00,
2013-02-07 01:52:00,26.0,15.8,30.09,ENE,63,9.0,13.0,65,0.00,,,0.00,0,Wunderground v.1.15,2013-02-07 08:52:00,
2013-02-07 01:58:00,26.5,16.0,30.09,ENE,77,10.0,13.0,64,0.00,,,0.00,0,Wunderground v.1.15,2013-02-07 08:58:00,
2013-02-07 02:04:00,26.9,15.6,30.09,ENE,76,11.0,11.0,62,0.00,,,0.00,0,Wunderground v.1.15,2013-02-07 09:04:00,
2013-02-07 02:10:00,27.4,15.7,30.09,ENE,73,12.0,12.0,61,0.00,,,0.00,0,Wunderground v.1.15,2013-02-07 09:10:00,
2013-02-07 02:16:00,27.8,16.1,30.09,NE,42,12.0,12.0,61,0.00,,,0.00,0,Wunderground v.1.15,2013-02-07 09:16:00,
2013-02-07 02:22:00,27.9,15.8,30.08,ENE,63,12.0,13.0,60,0.00,,,0.00,0,Wunderground v.1.15,2013-02-07 09:22:00,
2013-02-07 02:28:00,27.9,15.8,30.08,ENE,75,12.0,13.0,60,0.00,,,0.00,0,Wunderground v.1.15,2013-02-07 09:28:00,
2013-02-07 02:34:00,27.6,15.5,30.08,East,86,11.0,15.0,60,0.00,,,0.00,0,Wunderground v.1.15,2013-02-07 09:34:00,
2013-02-07 02:40:00,27.7,15.6,30.08,East,96,10.0,11.0,60,0.00,,,0.00,0,Wunderground v.1.15,2013-02-07 09:40:00,
2013-02-07 02:46:00,27.2,15.5,30.08,East,98,9.0,11.0,61,0.00,,,0.00,0,Wunderground v.1.15,2013-02-07 09:46:00,
2013-02-07 02:52:00,26.7,15.4,30.08,East,94,9.0,9.0,62,0.00,,,0.00,0,Wunderground v.1.15,2013-02-07 09:52:00,
2013-02-07 02:58:00,26.1,15.2,30.07,East,88,10.0,10.0,63,0.00,,,0.00,0,Wunderground v.1.15,2013-02-07 09:58:00,
2013-02-07 03:04:00,25.6,15.5,30.07,ESE,113,10.0,10.0,65,0.00,,,0.00,0,Wunderground v.1.15,2013-02-07 10:04:00,
2013-02-07 03:10:00,25.6,15.5,30.07,ESE,115,10.0,10.0,65,0.00,,,0.00,0,Wunderground v.1.15,2013-02-07 10:10:00,
2013-02-07 03:16:00,25.9,15.4,30.06,ESE,105,9.0,9.0,64,0.00,,,0.00,0,Wunderground v.1.15,2013-02-07 10:16:00,
2013-02-07 03:22:00,26.5,15.6,30.07,East,85,8.0,8.0,63,0.00,,,0.00,0,Wunderground v.1.15,2013-02-07 10:22:00,
2013-02-07 03:28:00,27.1,15.8,30.07,ESE,111,9.0,11.0,62,0.00,,,0.00,0,Wunderground v.1.15,2013-02-07 10:28:00,
2013-02-07 03:34:00,27.4,16.1,30.06,East,85,10.0,10.0,62,0.00,,,0.00,0,Wunderground v.1.15,2013-02-07 10:34:00,
2013-02-07 03:40:00,27.5,16.2,30.06,East,84,10.0,12.0,62,0.00,,,0.00,0,Wunderground v.1.15,2013-02-07 10:40:00,
2013-02-07 03:46:00,27.7,16.0,30.06,East,86,10.0,11.0,61,0.00,,,0.00,0,Wunderground v.1.15,2013-02-07 10:46:00,
2013-02-07 03:52:00,28.0,15.9,30.06,East,81,11.0,12.0,60,0.00,,,0.00,0,Wunderground v.1.15,2013-02-07 10:52:00,
2013-02-07 03:58:00,28.3,15.8,30.05,ENE,66,12.0,12.0,59,0.00,,,0.00,0,Wunderground v.1.15,2013-02-07 10:58:00,
2013-02-07 04:04:00,28.8,15.9,30.05,East,88,14.0,17.0,58,0.00,,,0.00,0,Wunderground v.1.15,2013-02-07 11:04:00,
2013-02-07 04:10:00,29.0,16.1,30.05,ENE,74,14.0,14.0,58,0.00,,,0.00,0,Wunderground v.1.15,2013-02-07 11:10:00,
2013-02-07 04:16:00,29.2,15.8,30.05,East,87,11.0,14.0,57,0.00,,,0.00,0,Wunderground v.1.15,2013-02-07 11:16:00,
2013-02-07 04:22:00,29.6,15.8,30.05,ENE,78,11.0,11.0,56,0.00,,,0.00,0,Wunderground v.1.15,2013-02-07 11:22:00,
2013-02-07 04:28:00,30.0,15.3,30.04,East,84,11.0,11.0,54,0.00,,,0.00,0,Wunderground v.1.15,2013-02-07 11:28:00,
2013-02-07 04:34:00,30.1,15.9,30.04,East,87,9.0,12.0,55,0.00,,,0.00,0,Wunderground v.1.15,2013-02-07 11:34:00,
2013-02-07 04:40:00,29.7,16.3,30.04,East,88,9.0,10.0,57,0.00,,,0.00,0,Wunderground v.1.15,2013-02-07 11:40:00,
2013-02-07 04:46:00,29.0,16.1,30.04,ENE,74,11.0,12.0,58,0.00,,,0.00,0,Wunderground v.1.15,2013-02-07 11:46:00,
2013-02-07 04:52:00,29.1,15.7,30.05,ENE,77,13.0,14.0,57,0.00,,,0.00,0,Wunderground v.1.15,2013-02-07 11:52:00,
2013-02-07 04:58:00,29.5,15.3,30.04,East,80,13.0,16.0,55,0.00,,,0.00,0,Wunderground v.1.15,2013-02-07 11:58:00,
2013-02-07 05:04:00,29.9,15.3,30.05,East,81,13.0,15.0,54,0.00,,,0.00,0,Wunderground v.1.15,2013-02-07 12:04:00,
2013-02-07 05:10:00,29.9,15.3,30.05,East,80,14.0,15.0,54,0.00,,,0.00,0,Wunderground v.1.15,2013-02-07 12:10:00,
2013-02-07 05:16:00,30.0,15.3,30.04,ENE,67,14.0,15.0,54,0.00,,,0.00,0,Wunderground v.1.15,2013-02-07 12:16:00,
2013-02-07 05:22:00,30.3,15.2,30.04,ENE,78,15.0,18.0,53,0.00,,,0.00,0,Wunderground v.1.15,2013-02-07 12:22:00,
2013-02-07 05:30:00,30.3,15.2,30.03,ENE,74,15.0,15.0,53,0.00,,,0.00,0,Wunderground v.1.15,2013-02-07 12:30:00,
2013-02-07 05:36:00,30.4,15.3,30.03,East,84,15.0,19.0,53,0.00,,,0.00,0,Wunderground v.1.15,2013-02-07 12:36:00,
2013-02-07 05:44:00,30.4,15.3,30.03,ENE,78,16.0,18.0,53,0.00,,,0.00,0,Wunderground v.1.15,2013-02-07 12:44:00,
2013-02-07 05:52:00,30.4,14.9,30.04,East,79,14.0,14.0,52,0.00,,,0.00,0,Wunderground v.1.15,2013-02-07 12:52:00,
2013-02-07 05:58:00,30.4,14.9,30.04,ENE,75,12.0,20.0,52,0.00,,,0.00,0,Wunderground v.1.15,2013-02-07 12:58:00,
2013-02-07 06:04:00,30.4,15.3,30.04,East,82,12.0,14.0,53,0.00,,,0.00,0,Wunderground v.1.15,2013-02-07 13:04:00,
2013-02-07 06:10:00,29.9,15.3,30.03,ESE,103,13.0,15.0,54,0.00,,,0.00,0,Wunderground v.1.15,2013-02-07 13:10:00,
2013-02-07 06:16:00,29.6,15.4,30.03,ENE,63,14.0,16.0,55,0.00,,,0.00,0,Wunderground v.1.15,2013-02-07 13:16:00,
2013-02-07 06:22:00,29.5,15.3,30.03,East,85,14.0,18.0,55,0.00,,,0.00,0,Wunderground v.1.15,2013-02-07 13:22:00,
2013-02-07 06:28:00,29.4,15.2,30.02,East,80,15.0,18.0,55,0.00,,,0.00,0,Wunderground v.1.15,2013-02-07 13:28:00,
2013-02-07 06:34:00,29.5,14.9,30.02,ENE,69,15.0,20.0,54,0.00,,,0.00,0,Wunderground v.1.15,2013-02-07 13:34:00,
2013-02-07 06:40:00,29.7,15.1,30.02,East,81,16.0,16.0,54,0.00,,,0.00,0,Wunderground v.1.15,2013-02-07 13:40:00,
2013-02-07 06:46:00,29.6,15.0,30.02,ENE,68,14.0,16.0,54,0.00,,,0.00,0,Wunderground v.1.15,2013-02-07 13:46:00,
2013-02-07 06:52:00,29.4,14.8,30.03,ENE,70,14.0,14.0,54,0.00,,,0.00,0,Wunderground v.1.15,2013-02-07 13:52:00,
2013-02-07 06:58:00,29.4,14.8,30.03,East,82,14.0,14.0,54,0.00,,,0.00,0,Wunderground v.1.15,2013-02-07 13:58:00,
2013-02-07 07:04:00,29.6,15.0,30.03,East,79,15.0,15.0,54,0.00,,,0.00,0,Wunderground v.1.15,2013-02-07 14:04:00,
2013-02-07 07:10:00,29.8,15.2,30.02,ENE,74,15.0,17.0,54,0.00,,,0.00,0,Wunderground v.1.15,2013-02-07 14:10:00,
2013-02-07 07:16:00,30.1,15.0,30.03,East,83,16.0,19.0,53,0.00,,,0.00,0,Wunderground v.1.15,2013-02-07 14:16:00,
2013-02-07 07:22:00,30.1,15.0,30.02,ENE,76,15.0,16.0,53,0.00,,,0.00,0,Wunderground v.1.15,2013-02-07 14:22:00,
2013-02-07 07:28:00,30.2,15.1,30.02,ENE,75,15.0,16.0,53,0.00,,,0.00,0,Wunderground v.1.15,2013-02-07 14:28:00,
2013-02-07 07:34:00,30.4,14.9,30.02,East,80,15.0,18.0,52,0.00,,,0.00,0,Wunderground v.1.15,2013-02-07 14:34:00,
2013-02-07 07:40:00,30.7,15.1,30.02,ENE,72,16.0,16.0,52,0.00,,,0.00,0,Wunderground v.1.15,2013-02-07 14:40:00,
2013-02-07 07:46:00,30.7,14.7,30.02,ENE,73,17.0,17.0,51,0.00,,,0.00,0,Wunderground v.1.15,2013-02-07 14:46:00,
2013-02-07 07:56:00,30.7,14.7,30.03,East,89,15.0,16.0,51,0.00,,,0.00,5,Wunderground v.1.15,2013-02-07 14:56:00,
2013-02-07 08:02:00,30.7,15.1,30.03,ESE,105,15.0,15.0,52,0.00,,,0.00,9,Wunderground v.1.15,2013-02-07 15:02:00,
2013-02-07 08:08:00,30.7,15.1,30.03,East,79,15.0,18.0,52,0.00,,,0.00,12,Wunderground v.1.15,2013-02-07 15:08:00,
2013-02-07 08:14:00,30.7,15.1,30.03,ENE,78,14.0,17.0,52,0.00,,,0.00,16,Wunderground v.1.15,2013-02-07 15:14:00,
2013-02-07 08:20:00,30.7,15.1,30.03,East,101,15.0,15.0,52,0.00,,,0.00,25,Wunderground v.1.15,2013-02-07 15:20:00,
2013-02-07 08:26:00,30.7,15.1,30.03,East,87,15.0,18.0,52,0.00,,,0.00,32,Wunderground v.1.15,2013-02-07 15:26:00,
2013-02-07 08:32:00,30.6,15.5,30.03,East,86,14.0,15.0,53,0.00,,,0.00,42,Wunderground v.1.15,2013-02-07 15:32:00,
2013-02-07 08:38:00,30.6,15.5,30.03,ENE,71,15.0,17.0,53,0.00,,,0.00,63,Wunderground v.1.15,2013-02-07 15:38:00,
2013-02-07 08:44:00,30.8,15.7,30.03,East,84,17.0,22.0,53,0.00,,,0.00,72,Wunderground v.1.15,2013-02-07 15:44:00,
2013-02-07 08:50:00,31.0,15.8,30.03,East,96,18.0,18.0,53,0.00,,,0.00,76,Wunderground v.1.15,2013-02-07 15:50:00,
2013-02-07 08:56:00,31.0,15.8,30.03,East,85,17.0,23.0,53,0.00,,,0.00,84,Wunderground v.1.15,2013-02-07 15:56:00,
2013-02-07 09:02:00,31.2,15.6,30.03,East,91,19.0,22.0,52,0.00,,,0.00,114,Wunderground v.1.15,2013-02-07 16:02:00,
2013-02-07 09:08:00,31.5,15.9,30.03,East,100,19.0,22.0,52,0.00,,,0.00,114,Wunderground v.1.15,2013-02-07 16:08:00,
2013-02-07 09:14:00,31.6,16.0,30.03,East,92,18.0,19.0,52,0.00,,,0.00,118,Wunderground v.1.15,2013-02-07 16:14:00,
2013-02-07 09:20:00,31.5,15.9,30.02,East,100,17.0,17.0,52,0.00,,,0.00,123,Wunderground v.1.15,2013-02-07 16:20:00,
2013-02-07 09:26:00,31.6,16.0,30.02,ESE,114,18.0,19.0,52,0.00,,,0.00,120,Wunderground v.1.15,2013-02-07 16:26:00,
2013-02-07 09:32:00,31.7,16.1,30.02,ESE,118,17.0,19.0,52,0.00,,,0.00,121,Wunderground v.1.15,2013-02-07 16:32:00,
2013-02-07 09:38:00,31.9,16.2,30.03,East,98,17.0,19.0,52,0.00,,,0.00,139,Wunderground v.1.15,2013-02-07 16:38:00,
2013-02-07 09:44:00,32.2,16.1,30.03,ESE,108,16.0,25.0,51,0.00,,,0.00,141,Wunderground v.1.15,2013-02-07 16:44:00,
2013-02-07 09:50:00,32.4,16.3,30.03,ESE,119,16.0,16.0,51,0.00,,,0.00,142,Wunderground v.1.15,2013-02-07 16:50:00,
2013-02-07 09:56:00,32.4,16.7,30.02,ESE,113,17.0,19.0,52,0.00,,,0.00,160,Wunderground v.1.15,2013-02-07 16:56:00,
2013-02-07 10:02:00,32.5,16.8,30.03,ESE,102,16.0,20.0,52,0.00,,,0.00,165,Wunderground v.1.15,2013-02-07 17:02:00,
2013-02-07 10:08:00,32.7,17.0,30.02,SE,146,17.0,21.0,52,0.00,,,0.00,206,Wunderground v.1.15,2013-02-07 17:08:00,
2013-02-07 10:14:00,33.1,16.9,30.02,SE,132,17.0,20.0,51,0.00,,,0.00,216,Wunderground v.1.15,2013-02-07 17:14:00,
2013-02-07 10:20:00,33.6,17.4,30.02,SE,126,19.0,19.0,51,0.00,,,0.00,336,Wunderground v.1.15,2013-02-07 17:20:00,
2013-02-07 10:26:00,34.5,17.8,30.02,SE,127,18.0,21.0,50,0.00,,,0.00,345,Wunderground v.1.15,2013-02-07 17:26:00,
2013-02-07 10:32:00,35.2,17.4,30.02,SE,130,17.0,19.0,48,0.00,,,0.00,264,Wunderground v.1.15,2013-02-07 17:32:00,
2013-02-07 10:38:00,35.2,17.0,30.02,SSE,152,18.0,21.0,47,0.00,,,0.00,225,Wunderground v.1.15,2013-02-07 17:38:00,
2013-02-07 10:44:00,35.1,17.4,30.02,SE,134,17.0,19.0,48,0.00,,,0.00,218,Wunderground v.1.15,2013-02-07 17:44:00,
2013-02-07 10:50:00,35.0,17.3,30.02,SE,131,15.0,16.0,48,0.00,,,0.00,276,Wunderground v.1.15,2013-02-07 17:50:00,
2013-02-07 10:56:00,35.4,18.1,30.02,SE,126,16.0,19.0,49,0.00,,,0.00,413,Wunderground v.1.15,2013-02-07 17:56:00,
2013-02-07 11:02:00,36.1,17.8,30.02,SE,140,16.0,16.0,47,0.00,,,0.00,413,Wunderground v.1.15,2013-02-07 18:02:00,
2013-02-07 11:08:00,36.2,17.9,30.02,SE,145,17.0,19.0,47,0.00,,,0.00,260,Wunderground v.1.15,2013-02-07 18:08:00,
2013-02-07 11:14:00,35.9,18.1,30.01,SSE,148,18.0,24.0,48,0.00,,,0.00,334,Wunderground v.1.15,2013-02-07 18:14:00,
2013-02-07 11:20:00,35.5,17.7,30.02,SSE,156,19.0,19.0,48,0.00,,,0.00,315,Wunderground v.1.15,2013-02-07 18:20:00,
2013-02-07 11:26:00,35.7,18.4,30.01,SSE,153,20.0,22.0,49,0.00,,,0.00,432,Wunderground v.1.15,2013-02-07 18:26:00,
2013-02-07 11:32:00,36.1,18.3,30.01,South,175,19.0,19.0,48,0.00,,,0.00,429,Wunderground v.1.15,2013-02-07 18:32:00,
2013-02-07 11:38:00,36.4,18.1,30.01,SSE,161,18.0,22.0,47,0.00,,,0.00,294,Wunderground v.1.15,2013-02-07 18:38:00,
2013-02-07 11:44:00,36.2,18.4,30.02,South,175,18.0,19.0,48,0.00,,,0.00,387,Wunderground v.1.15,2013-02-07 18:44:00,
2013-02-07 11:50:00,36.4,18.6,30.01,SSE,162,16.0,16.0,48,0.00,,,0.00,439,Wunderground v.1.15,2013-02-07 18:50:00,
2013-02-07 11:56:00,36.8,18.4,30.01,SSE,163,16.0,21.0,47,0.00,,,0.00,506,Wunderground v.1.15,2013-02-07 18:56:00,
2013-02-07 12:02:00,37.1,18.2,30.01,SSE,164,17.0,20.0,46,0.00,,,0.00,461,Wunderground v.1.15,2013-02-07 19:02:00,
2013-02-07 12:08:00,37.4,18.5,30.01,SSE,153,16.0,20.0,46,0.00,,,0.00,427,Wunderground v.1.15,2013-02-07 19:08:00,
2013-02-07 12:14:00,37.5,19.1,30.01,South,171,16.0,17.0,47,0.00,,,0.00,482,Wunderground v.1.15,2013-02-07 19:14:00,
2013-02-07 12:20:00,37.8,18.3,30.00,SSE,156,16.0,16.0,45,0.00,,,0.00,496,Wunderground v.1.15,2013-02-07 19:20:00,
2013-02-07 12:26:00,38.0,18.5,30.00,South,189,16.0,20.0,45,0.00,,,0.00,487,Wunderground v.1.15,2013-02-07 19:26:00,
2013-02-07 12:32:00,38.4,18.9,30.00,SSE,166,15.0,15.0,45,0.00,,,0.00,455,Wunderground v.1.15,2013-02-07 19:32:00,
2013-02-07 12:38:00,38.7,19.2,30.00,SSE,159,14.0,16.0,45,0.00,,,0.00,475,Wunderground v.1.15,2013-02-07 19:38:00,
2013-02-07 12:44:00,39.2,20.1,30.00,South,189,12.0,13.0,46,0.00,,,0.00,573,Wunderground v.1.15,2013-02-07 19:44:00,
2013-02-07 12:50:00,40.0,19.8,29.99,SSE,157,12.0,14.0,44,0.00,,,0.00,575,Wunderground v.1.15,2013-02-07 19:50:00,
2013-02-07 12:56:00,40.4,19.6,29.99,South,177,13.0,15.0,43,0.00,,,0.00,533,Wunderground v.1.15,2013-02-07 19:56:00,
2013-02-07 13:02:00,40.7,19.9,29.99,South,183,13.0,20.0,43,0.00,,,0.00,517,Wunderground v.1.15,2013-02-07 20:02:00,
2013-02-07 13:08:00,40.8,19.5,29.98,South,188,13.0,20.0,42,0.00,,,0.00,462,Wunderground v.1.15,2013-02-07 20:08:00,
2013-02-07 13:14:00,40.5,19.2,29.99,SSE,161,13.0,19.0,42,0.00,,,0.00,329,Wunderground v.1.15,2013-02-07 20:14:00,
2013-02-07 13:20:00,39.7,19.0,29.98,SSE,166,14.0,14.0,43,0.00,,,0.00,378,Wunderground v.1.15,2013-02-07 20:20:00,
2013-02-07 13:26:00,39.5,19.9,29.98,South,169,13.0,14.0,45,0.00,,,0.00,374,Wunderground v.1.15,2013-02-07 20:26:00,
2013-02-07 13:32:00,39.6,20.0,29.97,SSW,204,11.0,12.0,45,0.00,,,0.00,332,Wunderground v.1.15,2013-02-07 20:32:00,
2013-02-07 13:38:00,39.7,19.5,29.97,SE,146,11.0,12.0,44,0.00,,,0.00,381,Wunderground v.1.15,2013-02-07 20:38:00,
2013-02-07 13:44:00,39.8,20.2,29.97,South,189,12.0,17.0,45,0.00,,,0.00,383,Wunderground v.1.15,2013-02-07 20:44:00,
2013-02-07 13:50:00,40.0,20.3,29.96,SSE,150,11.0,14.0,45,0.00,,,0.00,346,Wunderground v.1.15,2013-02-07 20:50:00,
2013-02-07 13:56:00,39.9,19.7,29.96,SSE,165,11.0,14.0,44,0.00,,,0.00,320,Wunderground v.1.15,2013-02-07 20:56:00,
2013-02-07 14:02:00,39.8,19.6,29.96,South,184,11.0,12.0,44,0.00,,,0.00,306,Wunderground v.1.15,2013-02-07 21:02:00,
2013-02-07 14:08:00,40.0,19.8,29.96,South,179,10.0,13.0,44,0.00,,,0.00,352,Wunderground v.1.15,2013-02-07 21:08:00,
2013-02-07 14:14:00,40.3,19.5,29.96,SSE,167,11.0,15.0,43,0.00,,,0.00,399,Wunderground v.1.15,2013-02-07 21:14:00,
2013-02-07 14:20:00,40.4,19.6,29.96,South,172,12.0,12.0,43,0.00,,,0.00,427,Wunderground v.1.15,2013-02-07 21:20:00,
2013-02-07 14:26:00,40.6,19.8,29.95,South,186,12.0,14.0,43,0.00,,,0.00,381,Wunderground v.1.15,2013-02-07 21:26:00,
2013-02-07 14:32:00,40.6,19.8,29.95,South,173,13.0,17.0,43,0.00,,,0.00,281,Wunderground v.1.15,2013-02-07 21:32:00,
2013-02-07 14:38:00,40.3,19.5,29.95,South,180,13.0,17.0,43,0.00,,,0.00,250,Wunderground v.1.15,2013-02-07 21:38:00,
2013-02-07 14:44:00,40.1,19.9,29.95,SSW,193,12.0,14.0,44,0.00,,,0.00,294,Wunderground v.1.15,2013-02-07 21:44:00,
2013-02-07 14:50:00,40.1,19.9,29.95,South,169,12.0,16.0,44,0.00,,,0.00,445,Wunderground v.1.15,2013-02-07 21:50:00,
2013-02-07 14:56:00,40.5,20.3,29.94,South,176,12.0,16.0,44,0.00,,,0.00,366,Wunderground v.1.15,2013-02-07 21:56:00,
2013-02-07 15:02:00,40.6,19.8,29.94,SSE,167,11.0,11.0,43,0.00,,,0.00,244,Wunderground v.1.15,2013-02-07 22:02:00,
2013-02-07 15:08:00,40.6,19.8,29.94,SSE,152,9.0,16.0,43,0.00,,,0.00,246,Wunderground v.1.15,2013-02-07 22:08:00,
2013-02-07 15:14:00,40.4,20.2,29.94,SSE,157,9.0,13.0,44,0.00,,,0.00,243,Wunderground v.1.15,2013-02-07 22:14:00,
2013-02-07 15:20:00,40.3,20.1,29.94,SSE,150,10.0,10.0,44,0.00,,,0.00,229,Wunderground v.1.15,2013-02-07 22:20:00,
2013-02-07 15:26:00,40.2,19.5,29.94,SSE,160,10.0,13.0,43,0.00,,,0.00,193,Wunderground v.1.15,2013-02-07 22:26:00,
2013-02-07 15:32:00,40.0,19.8,29.94,South,173,10.0,10.0,44,0.00,,,0.00,190,Wunderground v.1.15,2013-02-07 22:32:00,
2013-02-07 15:38:00,39.8,19.6,29.94,SSE,165,10.0,14.0,44,0.00,,,0.00,193,Wunderground v.1.15,2013-02-07 22:38:00,
2013-02-07 15:44:00,39.7,20.1,29.94,South,169,11.0,14.0,45,0.00,,,0.00,213,Wunderground v.1.15,2013-02-07 22:44:00,
2013-02-07 15:50:00,39.6,19.5,29.93,SE,146,11.0,12.0,44,0.00,,,0.00,204,Wunderground v.1.15,2013-02-07 22:50:00,
2013-02-07 15:56:00,39.6,20.0,29.93,South,186,11.0,12.0,45,0.00,,,0.00,169,Wunderground v.1.15,2013-02-07 22:56:00,
2013-02-07 16:02:00,39.5,19.9,29.93,South,174,10.0,11.0,45,0.00,,,0.00,144,Wunderground v.1.15,2013-02-07 23:02:00,
2013-02-07 16:08:00,39.4,19.8,29.92,South,173,11.0,12.0,45,0.00,,,0.00,139,Wunderground v.1.15,2013-02-07 23:08:00,
2013-02-07 16:14:00,39.3,19.7,29.92,SSE,167,11.0,14.0,45,0.00,,,0.00,125,Wunderground v.1.15,2013-02-07 23:14:00,
2013-02-07 16:20:00,39.1,20.0,29.92,South,179,10.0,10.0,46,0.00,,,0.00,132,Wunderground v.1.15,2013-02-07 23:20:00,
2013-02-07 16:26:00,39.1,20.0,29.92,South,172,10.0,13.0,46,0.00,,,0.00,116,Wunderground v.1.15,2013-02-07 23:26:00,
2013-02-07 16:32:00,38.9,20.4,29.93,South,173,10.0,14.0,47,0.00,,,0.00,97,Wunderground v.1.15,2013-02-07 23:32:00,
2013-02-07 16:38:00,38.7,20.2,29.92,SSE,166,11.0,14.0,47,0.00,,,0.00,86,Wunderground v.1.15,2013-02-07 23:38:00,
2013-02-07 16:44:00,38.6,19.6,29.92,SSE,161,12.0,15.0,46,0.00,,,0.00,76,Wunderground v.1.15,2013-02-07 23:44:00,
2013-02-07 16:50:00,38.4,19.9,29.92,SSE,168,12.0,12.0,47,0.00,,,0.00,67,Wunderground v.1.15,2013-02-07 23:50:00,
2013-02-07 16:56:00,38.4,20.4,29.92,South,186,12.0,15.0,48,0.00,,,0.00,62,Wunderground v.1.15,2013-02-07 23:56:00,
2013-02-07 17:02:00,38.2,20.2,29.92,SE,134,12.0,12.0,48,0.00,,,0.00,54,Wunderground v.1.15,2013-02-08 00:02:00,
2013-02-07 17:08:00,38.0,20.5,29.92,South,169,11.0,12.0,49,0.00,,,0.00,47,Wunderground v.1.15,2013-02-08 00:08:00,
2013-02-07 17:14:00,37.8,20.3,29.92,SSE,155,12.0,14.0,49,0.00,,,0.00,37,Wunderground v.1.15,2013-02-08 00:14:00,
2013-02-07 17:20:00,37.6,20.1,29.92,South,172,11.0,11.0,49,0.00,,,0.00,28,Wunderground v.1.15,2013-02-08 00:20:00,
2013-02-07 17:26:00,37.5,20.1,29.92,SSE,168,11.0,14.0,49,0.00,,,0.00,25,Wunderground v.1.15,2013-02-08 00:26:00,
2013-02-07 17:34:00,37.3,19.9,29.92,SSE,163,11.0,11.0,49,0.00,,,0.00,16,Wunderground v.1.15,2013-02-08 00:34:00,
2013-02-07 17:40:00,37.1,20.2,29.92,SSE,163,11.0,11.0,50,0.00,,,0.00,9,Wunderground v.1.15,2013-02-08 00:40:00,
2013-02-07 17:46:00,37.0,20.1,29.92,SSE,150,11.0,12.0,50,0.00,,,0.00,7,Wunderground v.1.15,2013-02-08 00:46:00,
2013-02-07 17:52:00,36.8,19.9,29.92,SSE,161,12.0,12.0,50,0.00,,,0.00,0,Wunderground v.1.15,2013-02-08 00:52:00,
2013-02-07 17:58:00,36.7,19.8,29.92,SSE,163,12.0,14.0,50,0.00,,,0.00,0,Wunderground v.1.15,2013-02-08 00:58:00,
2013-02-07 18:04:00,36.6,19.7,29.93,SSE,163,11.0,14.0,50,0.00,,,0.00,0,Wunderground v.1.15,2013-02-08 01:04:00,
2013-02-07 18:10:00,36.6,19.7,29.92,SSE,148,11.0,11.0,50,0.00,,,0.00,0,Wunderground v.1.15,2013-02-08 01:10:00,
2013-02-07 18:16:00,36.5,19.6,29.93,SSE,163,11.0,12.0,50,0.00,,,0.00,0,Wunderground v.1.15,2013-02-08 01:16:00,
2013-02-07 18:22:00,36.4,19.5,29.93,SSE,152,11.0,11.0,50,0.00,,,0.00,0,Wunderground v.1.15,2013-02-08 01:22:00,
2013-02-07 18:28:00,36.2,19.3,29.93,SSE,156,11.0,13.0,50,0.00,,,0.00,0,Wunderground v.1.15,2013-02-08 01:28:00,
2013-02-07 18:34:00,36.0,19.6,29.93,SSE,162,10.0,11.0,51,0.00,,,0.00,0,Wunderground v.1.15,2013-02-08 01:34:00,
2013-02-07 18:40:00,35.9,19.5,29.93,SSE,151,10.0,12.0,51,0.00,,,0.00,0,Wunderground v.1.15,2013-02-08 01:40:00,
2013-02-07 18:46:00,35.8,19.4,29.93,SSE,158,10.0,12.0,51,0.00,,,0.00,0,Wunderground v.1.15,2013-02-08 01:46:00,
2013-02-07 18:54:00,35.7,19.3,29.93,SSE,159,10.0,11.0,51,0.00,,,0.00,0,Wunderground v.1.15,2013-02-08 01:54:00,
2013-02-07 19:00:00,35.6,19.7,29.94,SSE,159,10.0,10.0,52,0.00,,,0.00,0,Wunderground v.1.15,2013-02-08 02:00:00,
2013-02-07 19:06:00,35.5,19.6,29.94,South,170,9.0,10.0,52,0.00,,,0.00,0,Wunderground v.1.15,2013-02-08 02:06:00,
2013-02-07 19:12:00,35.4,19.5,29.94,SSE,152,9.0,11.0,52,0.00,,,0.00,0,Wunderground v.1.15,2013-02-08 02:12:00,
2013-02-07 19:20:00,35.4,19.5,29.93,SSE,165,10.0,10.0,52,0.00,,,0.00,0,Wunderground v.1.15,2013-02-08 02:20:00,
2013-02-07 19:26:00,35.5,19.6,29.93,SSE,163,11.0,11.0,52,0.00,,,0.00,0,Wunderground v.1.15,2013-02-08 02:26:00,
2013-02-07 19:32:00,35.6,19.2,29.93,SE,132,12.0,14.0,51,0.00,,,0.00,0,Wunderground v.1.15,2013-02-08 02:32:00,
2013-02-07 19:38:00,35.7,19.3,29.93,SSE,164,12.0,14.0,51,0.00,,,0.00,0,Wunderground v.1.15,2013-02-08 02:38:00,
2013-02-07 19:44:00,35.8,19.4,29.93,South,178,12.0,13.0,51,0.00,,,0.00,0,Wunderground v.1.15,2013-02-08 02:44:00,
2013-02-07 19:50:00,35.9,19.0,29.94,SSW,203,10.0,10.0,50,0.00,,,0.00,0,Wunderground v.1.15,2013-02-08 02:50:00,
2013-02-07 19:56:00,35.7,21.5,29.94,NNW,334,6.0,10.0,56,0.00,,,0.00,0,Wunderground v.1.15,2013-02-08 02:56:00,
2013-02-07 20:02:00,35.1,21.0,29.94,NNW,334,3.0,4.0,56,0.00,,,0.00,0,Wunderground v.1.15,2013-02-08 03:02:00,
2013-02-07 20:08:00,34.5,21.2,29.95,NNW,334,0.0,4.0,58,0.00,,,0.00,0,Wunderground v.1.15,2013-02-08 03:08:00,
2013-02-07 20:14:00,33.7,20.5,29.95,NNW,334,0.0,3.0,58,0.00,,,0.00,0,Wunderground v.1.15,2013-02-08 03:14:00,
2013-02-07 20:20:00,33.0,20.2,29.94,NNW,340,2.0,2.0,59,0.00,,,0.00,0,Wunderground v.1.15,2013-02-08 03:20:00,
2013-02-07 20:26:00,32.5,19.7,29.94,NNW,340,1.0,2.0,59,0.00,,,0.00,0,Wunderground v.1.15,2013-02-08 03:26:00,
2013-02-07 20:32:00,32.1,19.8,29.94,NNW,340,0.0,2.0,60,0.00,,,0.00,0,Wunderground v.1.15,2013-02-08 03:32:00,
2013-02-07 20:38:00,31.7,19.8,29.94,NNW,340,0.0,4.0,61,0.00,,,0.00,0,Wunderground v.1.15,2013-02-08 03:38:00,
2013-02-07 20:44:00,31.2,19.7,29.94,NNW,344,2.0,5.0,62,0.00,,,0.00,0,Wunderground v.1.15,2013-02-08 03:44:00,
2013-02-07 20:50:00,30.9,19.4,29.94,NNW,344,1.0,1.0,62,0.00,,,0.00,0,Wunderground v.1.15,2013-02-08 03:50:00,
2013-02-07 20:56:00,30.5,19.8,29.94,NNW,344,0.0,1.0,64,0.00,,,0.00,0,Wunderground v.1.15,2013-02-08 03:56:00,
2013-02-07 21:02:00,30.1,19.4,29.94,NNW,344,0.0,0.0,64,0.00,,,0.00,0,Wunderground v.1.15,2013-02-08 04:02:00,
2013-02-07 21:08:00,29.6,19.3,29.94,NNW,344,0.0,0.0,65,0.00,,,0.00,0,Wunderground v.1.15,2013-02-08 04:08:00,
2013-02-07 21:14:00,29.2,18.9,29.95,NNW,344,0.0,0.0,65,0.00,,,0.00,0,Wunderground v.1.15,2013-02-08 04:14:00,
2013-02-07 21:20:00,28.8,19.2,29.95,NNW,344,0.0,0.0,67,0.00,,,0.00,0,Wunderground v.1.15,2013-02-08 04:20:00,
2013-02-07 21:26:00,28.6,19.4,29.95,NNW,344,0.0,0.0,68,0.00,,,0.00,0,Wunderground v.1.15,2013-02-08 04:26:00,
2013-02-07 21:32:00,28.3,19.1,29.95,NNW,344,0.0,0.0,68,0.00,,,0.00,0,Wunderground v.1.15,2013-02-08 04:32:00,
2013-02-07 21:38:00,28.0,19.1,29.95,NNW,344,0.0,0.0,69,0.00,,,0.00,0,Wunderground v.1.15,2013-02-08 04:38:00,
2013-02-07 21:44:00,27.8,18.9,29.95,NNW,344,0.0,0.0,69,0.00,,,0.00,0,Wunderground v.1.15,2013-02-08 04:44:00,
2013-02-07 21:50:00,27.6,19.1,29.95,NNW,344,0.0,0.0,70,0.00,,,0.00,0,Wunderground v.1.15,2013-02-08 04:50:00,
2013-02-07 21:56:00,27.4,19.6,29.95,NNW,344,0.0,0.0,72,0.00,,,0.00,0,Wunderground v.1.15,2013-02-08 04:56:00,
2013-02-07 22:00:00,27.2,19.4,29.95,NNW,344,0.0,0.0,72,0.00,,,0.00,0,Wunderground v.1.15,2013-02-08 05:00:00,
2013-02-07 22:02:00,27.2,19.4,29.95,NNW,344,0.0,0.0,72,0.00,,,0.00,0,Wunderground v.1.15,2013-02-08 05:02:00,
2013-02-07 22:08:00,27.1,19.9,29.96,NNW,342,0.0,2.0,74,0.00,,,0.00,0,Wunderground v.1.15,2013-02-08 05:08:00,
2013-02-07 22:14:00,27.1,20.2,29.96,NW,317,1.0,2.0,75,0.00,,,0.00,0,Wunderground v.1.15,2013-02-08 05:14:00,
2013-02-07 22:20:00,27.1,20.5,29.95,SSW,206,2.0,4.0,76,0.00,,,0.00,0,Wunderground v.1.15,2013-02-08 05:20:00,
2013-02-07 22:24:00,27.2,20.6,29.95,SSW,205,3.0,4.0,76,0.00,,,0.00,0,Wunderground v.1.15,2013-02-08 05:24:00,
2013-02-07 22:30:00,27.3,21.0,29.95,SSW,208,4.0,4.0,77,0.00,,,0.00,0,Wunderground v.1.15,2013-02-08 05:30:00,
2013-02-07 22:36:00,27.5,20.6,29.94,South,186,5.0,7.0,75,0.00,,,0.00,0,Wunderground v.1.15,2013-02-08 05:36:00,
2013-02-07 22:42:00,27.8,20.6,29.94,South,188,6.0,6.0,74,0.00,,,0.00,0,Wunderground v.1.15,2013-02-08 05:42:00,
2013-02-07 22:48:00,28.0,20.8,29.94,SSW,192,5.0,6.0,74,0.00,,,0.00,0,Wunderground v.1.15,2013-02-08 05:48:00,
2013-02-07 22:54:00,28.1,20.6,29.95,SSW,200,4.0,4.0,73,0.00,,,0.00,0,Wunderground v.1.15,2013-02-08 05:54:00,
2013-02-07 23:00:00,28.2,20.3,29.95,SSW,199,4.0,4.0,72,0.00,,,0.00,0,Wunderground v.1.15,2013-02-08 06:00:00,
2013-02-07 23:06:00,28.2,20.3,29.95,SSW,200,2.0,4.0,72,0.00,,,0.00,0,Wunderground v.1.15,2013-02-08 06:06:00,
2013-02-07 23:12:00,28.2,20.3,29.95,SSW,200,2.0,3.0,72,0.00,,,0.00,0,Wunderground v.1.15,2013-02-08 06:12:00,
2013-02-07 23:18:00,28.1,19.9,29.95,SSW,200,1.0,3.0,71,0.00,,,0.00,0,Wunderground v.1.15,2013-02-08 06:18:00,
2013-02-07 23:24:00,28.0,20.1,29.95,SSW,200,1.0,1.0,72,0.00,,,0.00,0,Wunderground v.1.15,2013-02-08 06:24:00,
2013-02-07 23:30:00,27.8,20.3,29.95,SSW,200,1.0,1.0,73,0.00,,,0.00,0,Wunderground v.1.15,2013-02-08 06:30:00,
2013-02-07 23:36:00,27.5,20.3,29.95,SSW,200,0.0,1.0,74,0.00,,,0.00,0,Wunderground v.1.15,2013-02-08 06:36:00,
2013-02-07 23:42:00,27.2,20.3,29.95,SSW,200,1.0,4.0,75,0.00,,,0.00,0,Wunderground v.1.15,2013-02-08 06:42:00,
2013-02-07 23:50:00,26.6,20.1,29.96,SSW,202,3.0,3.0,76,0.00,,,0.00,0,Wunderground v.1.15,2013-02-08 06:50:00,
2013-02-07 23:56:00,26.1,19.9,29.96,SSW,202,3.0,3.0,77,0.00,,,0.00,0,Wunderground v.1.15,2013-02-08 06:56:00,